TimePDT,TemperatureF,Dew PointF,Humidity,Sea Level PressureIn,VisibilityMPH,Wind Direction,Wind SpeedMPH,Gust SpeedMPH,PrecipitationIn,Events,Conditions,WindDirDegrees,DateUTC
12:52 AM,81.0,72.0,74,29.78,10.0,Calm,Calm,-,N/A,,Clear,0,2013-09-03 07:52:00
1:52 AM,80.1,73.9,81,29.79,10.0,NNW,6.9,-,N/A,,Clear,330,2013-09-03 08:52:00
2:52 AM,81.0,72.0,74,29.79,10.0,WNW,4.6,-,N/A,,Clear,300,2013-09-03 09:52:00
3:52 AM,79.0,72.0,79,29.78,10.0,NNW,4.6,-,N/A,,Clear,340,2013-09-03 10:52:00
4:52 AM,80.1,71.1,74,29.78,10.0,NNW,4.6,-,N/A,,Clear,340,2013-09-03 11:52:00
5:52 AM,79.0,73.0,82,29.80,10.0,Calm,Calm,-,N/A,,Clear,0,2013-09-03 12:52:00
6:52 AM,80.1,73.0,79,29.82,10.0,Calm,Calm,-,N/A,,Clear,0,2013-09-03 13:52:00
7:52 AM,82.9,70.0,65,29.84,10.0,Calm,Calm,-,N/A,,Clear,0,2013-09-03 14:52:00
8:52 AM,86.0,70.0,59,29.85,10.0,Calm,Calm,-,N/A,,Clear,0,2013-09-03 15:52:00
9:52 AM,91.9,66.9,44,29.85,10.0,Calm,Calm,-,N/A,,Clear,0,2013-09-03 16:52:00
10:52 AM,95.0,66.9,40,29.85,10.0,Variable,4.6,-,N/A,,Clear,0,2013-09-03 17:52:00
11:52 AM,98.1,66.0,35,29.83,10.0,ENE,4.6,-,N/A,,Clear,60,2013-09-03 18:52:00
12:52 PM,102.0,64.0,29,29.81,10.0,Calm,Calm,-,N/A,,Clear,0,2013-09-03 19:52:00
1:52 PM,102.0,66.0,31,29.78,10.0,South,4.6,-,N/A,,Clear,190,2013-09-03 20:52:00
2:52 PM,104.0,64.9,28,29.75,10.0,Variable,4.6,-,N/A,,Clear,0,2013-09-03 21:52:00
3:52 PM,105.1,62.1,25,29.72,10.0,Calm,Calm,-,N/A,,Partly Cloudy,0,2013-09-03 22:52:00
4:52 PM,105.1,59.0,22,29.71,10.0,SSW,4.6,-,N/A,,Clear,210,2013-09-03 23:52:00
5:52 PM,105.1,59.0,22,29.71,10.0,West,4.6,-,N/A,,Clear,270,2013-09-04 00:52:00
6:52 PM,102.0,60.1,25,29.71,10.0,South,6.9,-,N/A,,Clear,170,2013-09-04 01:52:00
7:52 PM,100.0,63.0,29,29.72,10.0,SSW,3.5,-,N/A,,Clear,200,2013-09-04 02:52:00
8:52 PM,98.1,63.0,31,29.74,10.0,SSW,4.6,-,N/A,,Clear,210,2013-09-04 03:52:00
9:52 PM,97.0,63.0,32,29.76,10.0,Calm,Calm,-,N/A,,Clear,0,2013-09-04 04:52:00
10:52 PM,95.0,64.0,36,29.76,10.0,West,6.9,-,N/A,,Clear,270,2013-09-04 05:52:00
11:52 PM,96.1,63.0,33,29.77,10.0,SW,3.5,-,N/A,,Clear,230,2013-09-04 06:52:00